ZF1RC George Town KY current weather conditions

sailwx.info

Wind from 013 at 0 knots gusting 1

Air temperature 25.0° C
Dewpoint 22.9° C

Last reported at 2019-Dec-14 13:00 UTC.
Time now 2019-Dec-14 14:08 UTC

Location: N 19°16' W 081°23'.
View on Google Maps.

See reports from other nearby stations

  
Tides and Currents Weather Stations Pressure Air Temp Water Temp Dewpoint Dewpoint Depression Visibility Wind Speed Wind Dir Waves Ship Positions
date/time (UTC)wind fromknots sea level pressurealtimeterstation pressurevisibilityair tempwater tempwave heightnotes
2019-Dec-14 13:00 013 0 gusting 1 25.0
2019-Dec-14 12:30 026 0 gusting 1 23.9
2019-Dec-14 12:00 009 0 gusting 1 22.8
2019-Dec-14 11:30 033 0 gusting 1 23.3
2019-Dec-14 10:30 084 0 gusting 1 22.8
2019-Dec-14 10:00 056 0 gusting 0 22.8
2019-Dec-14 09:30 080 0 gusting 0 23.3
2019-Dec-14 09:00 061 0 gusting 1 23.3
2019-Dec-14 08:30 055 1 gusting 1 23.9
2019-Dec-14 08:00 057 0 gusting 1 23.9
2019-Dec-14 07:30 089 0 gusting 1 24.4
2019-Dec-14 07:00 062 1 gusting 1 24.4
2019-Dec-14 06:30 026 1 gusting 1 24.4
2019-Dec-14 06:00 093 24.4
2019-Dec-14 05:30 063 24.4
2019-Dec-14 05:00 014 0 gusting 1 24.4
2019-Dec-14 04:30 005 25.0
2019-Dec-14 04:00 004 3 gusting 5 25.6
2019-Dec-14 03:30 022 3 gusting 6 25.6
2019-Dec-14 03:00 25.0
2019-Dec-14 02:30 340 24.4
2019-Dec-14 02:00 069 25.0
2019-Dec-14 01:30 048 0 gusting 0 25.6
2019-Dec-14 01:00 031 0 gusting 1 25.6
2019-Dec-14 00:30 056 25.6
2019-Dec-14 00:00 068 1 gusting 1 26.1
2019-Dec-13 23:30 344 1 gusting 2 26.7
2019-Dec-13 23:00 024 1 gusting 4 26.7
2019-Dec-13 22:30 073 2 gusting 4 27.8
2019-Dec-13 22:00 056 1 gusting 6 28.3
2019-Dec-13 21:30 068 4 gusting 6 28.3
2019-Dec-13 21:00 108 4 gusting 6 29.4
2019-Dec-13 20:30 126 0 gusting 2 30.0
2019-Dec-13 20:00 125 0 gusting 2 30.6
2019-Dec-13 19:30 295 1 gusting 2 30.6
2019-Dec-13 19:00 063 1 gusting 6 30.6
2019-Dec-13 18:30 069 3 gusting 6 29.4
2019-Dec-13 18:00 075 4 gusting 6 28.9
2019-Dec-13 17:30 064 5 gusting 7 29.4
2019-Dec-13 17:00 066 3 gusting 7 29.4
2019-Dec-13 16:30 048 4 gusting 6 28.3
2019-Dec-13 16:00 017 2 gusting 6 28.9
2019-Dec-13 15:30 025 2 gusting 7 28.3
2019-Dec-13 15:00 045 4 gusting 7 28.3
2019-Dec-13 14:30 089 5 gusting 6 28.3
2019-Dec-13 14:00 059 2 gusting 6 27.2
2019-Dec-13 13:30 049 2 gusting 4 26.1
2019-Dec-13 13:00 067 2 gusting 4 25.0
2019-Dec-13 12:30 070 1 gusting 2 24.4
2019-Dec-13 12:00 071 0 gusting 2 23.9
2019-Dec-13 11:30 065 1 gusting 1 23.9
2019-Dec-13 11:00 080 1 gusting 2 23.9
2019-Dec-13 10:30 103 2 gusting 4 23.9
2019-Dec-13 10:00 080 1 gusting 2 23.9
2019-Dec-13 09:30 068 1 gusting 2 23.9
2019-Dec-13 08:30 059 0 gusting 2 24.4
2019-Dec-13 08:00 080 1 gusting 1 23.3
2019-Dec-13 07:30 088 1 gusting 1 23.9
2019-Dec-13 07:00 052 1 gusting 1 23.9
2019-Dec-13 06:30 046 2 gusting 2 24.4
2019-Dec-13 06:00 104 0 gusting 4 24.4
2019-Dec-13 05:30 090 2 gusting 4 24.4
2019-Dec-13 05:00 065 1 gusting 4 25.0
2019-Dec-13 04:30 100 2 gusting 2 25.0
2019-Dec-13 04:00 123 1 gusting 2 25.0
2019-Dec-13 03:30 037 1 gusting 4 25.0
2019-Dec-13 03:00 054 2 gusting 2 25.0
2019-Dec-13 02:30 049 2 gusting 4 25.0
2019-Dec-13 02:00 097 2 gusting 5 25.0
2019-Dec-13 01:30 086 2 gusting 4 25.0
2019-Dec-13 01:00 082 1 gusting 5 25.0
2019-Dec-13 00:30 108 2 gusting 6 25.0
2019-Dec-13 00:00 053 1 gusting 6 25.6
2019-Dec-12 23:30 069 1 gusting 5 26.1
2019-Dec-12 23:00 102 2 gusting 5 26.7
2019-Dec-12 22:30 039 4 gusting 6 27.2
2019-Dec-12 22:00 092 6 gusting 6 27.8
2019-Dec-12 21:30 055 2 gusting 8 28.3
2019-Dec-12 21:00 049 4 gusting 7 28.3
2019-Dec-12 20:30 102 5 gusting 8 28.9
2019-Dec-12 20:00 098 4 gusting 7 28.9
2019-Dec-12 19:30 056 4 gusting 11 28.9
2019-Dec-12 19:00 098 1 gusting 7 28.9
2019-Dec-12 18:30 061 7 gusting 10 28.3
2019-Dec-12 18:00 041 2 gusting 8 30.0
2019-Dec-12 17:30 096 6 gusting 10 28.9
2019-Dec-12 17:00 043 6 gusting 8 28.3
2019-Dec-12 16:30 073 5 gusting 8 27.8
2019-Dec-12 16:00 058 4 gusting 6 26.7
2019-Dec-12 15:30 075 5 gusting 6 27.2
2019-Dec-12 15:00 105 2 gusting 7 26.1
2019-Dec-12 14:30 077 4 gusting 7 25.6
2019-Dec-12 14:00 131 4 gusting 8 26.1